Weather History for Grazzanise, Italy

Change the Weather History Date:

Friday, May 24, 2013

  Actual Average (LIRN) Record (LIRN)
Temperature  
Mean Temperature 63 °F -  
Max Temperature 69 °F 79 °F 82 °F (2006)
Min Temperature 57 °F 57 °F 33 °F (2006)
Degree Days  
Heating Degree Days 2    
Growing Degree Days 13 (Base 50)    
Moisture  
Dew Point 54 °F    
Average Humidity 75    
Maximum Humidity 94    
Minimum Humidity 52    
Precipitation  
Precipitation 0.00 in 0.04 in - ()
Sea Level Pressure  
Sea Level Pressure 29.81 in    
Wind  
Wind Speed 11 mph ()    
Max Wind Speed 23 mph    
Max Gust Speed 37 mph    
Visibility 6.6 miles    
Events      
Averages and records for this station are not official NWS values.
T = Trace of Precipitation, MM = Missing Value Source: Averaged Metar Reports

Daily Weather History Graph

Daily Weather History Graph

Search for Another Location

Airport:

Trip Planner

Search our weather history database for the weather conditions in past years. The results will help you decide how hot, cold, wet, or windy it might be!

Date:

Astronomy

May. 24, 2013 Rise Set
Actual Time 5:38 AM CEST 8:23 PM CEST
Civil Twilight 5:06 AM CEST 8:55 PM CEST
Nautical Twilight 4:25 AM CEST 9:36 PM CEST
Astronomical Twilight 3:39 AM CEST 10:22 PM CEST
Moon 7:45 PM CEST (5/24) 4:56 AM CEST (5/24)
Length of Visible Light 15h 49m
Length of Day
14h 45m
Waxing Gibbous, 99% of the Moon is Illuminated
May 24
Waxing Gibbous
May 25
Full
May 31
Last Quarter
Jun 8
New
Jun 16
First Quarter

Hourly Weather History & Observations

Time (CEST) Temp. Dew Point Humidity Pressure Visibility Wind Dir Wind Speed Gust Speed Precip Events Conditions
12:55 AM 59.0 °F 57.2 °F 94% 29.68 in 6.2 mi West 9.2 mph - N/A   Partly Cloudy
1:55 AM 59.0 °F 57.2 °F 94% 29.71 in 6.2 mi West 11.5 mph - N/A   Partly Cloudy
2:00 AM 59 °F 56 °F 88% 29.71 in 6 mi West 11.5 mph - -  
2:55 AM 59.0 °F 55.4 °F 88% 29.71 in 6.2 mi West 12.7 mph - N/A   Partly Cloudy
3:55 AM 59.0 °F 55.4 °F 88% 29.71 in 6.2 mi West 5.8 mph - N/A   Partly Cloudy
4:55 AM 59.0 °F 55.4 °F 88% 29.71 in 6.2 mi West 6.9 mph - N/A   Scattered Clouds
5:00 AM 59 °F 55 °F 84% 29.73 in 6 mi West 6.9 mph - -   Partly Cloudy
5:55 AM 57.2 °F 53.6 °F 88% 29.71 in 6.2 mi WSW 9.2 mph - N/A   Scattered Clouds
6:55 AM 59.0 °F 55.4 °F 88% 29.74 in 6.2 mi West 12.7 mph 24.2 mph N/A   Mostly Cloudy
7:55 AM 62.6 °F 55.4 °F 77% 29.74 in 6.2 mi WSW 15.0 mph 27.6 mph N/A   Mostly Cloudy
8:00 AM 62 °F 55 °F 73% 29.76 in 6 mi WSW 15.0 mph - -  
8:55 AM 64.4 °F 53.6 °F 68% 29.77 in 6.2 mi West 20.7 mph - N/A   Scattered Clouds
9:55 AM 66.2 °F 53.6 °F 64% 29.80 in 6.2 mi West 23.0 mph 36.8 mph N/A   Scattered Clouds
10:55 AM 68.0 °F 51.8 °F 56% 29.80 in 6.2 mi West 20.7 mph - N/A   Scattered Clouds
11:55 AM 68.0 °F 50.0 °F 52% 29.83 in 6.2 mi West 17.3 mph - N/A   Scattered Clouds
12:55 PM 68.0 °F 51.8 °F 56% 29.83 in 6.2 mi West 18.4 mph 31.1 mph N/A   Scattered Clouds
1:55 PM 69.8 °F 59.0 °F 68% 29.86 in 6.2 mi West 16.1 mph - N/A   Scattered Clouds
2:55 PM 68.0 °F 51.8 °F 56% 29.86 in 6.2 mi West 17.3 mph 28.8 mph N/A   Scattered Clouds
3:55 PM 68.0 °F 51.8 °F 56% 29.86 in 6.2 mi West 16.1 mph - N/A   Mostly Cloudy
4:55 PM 66.2 °F 53.6 °F 64% 29.86 in 6.2 mi West 15.0 mph - N/A   Mostly Cloudy
5:00 PM 66 °F 54 °F 55% 29.88 in 12 mi West 15.0 mph - -   Partly Cloudy
5:55 PM 64.4 °F 51.8 °F 64% 29.86 in 6.2 mi WNW 17.3 mph - N/A   Mostly Cloudy
6:55 PM 62.6 °F 51.8 °F 68% 29.86 in 6.2 mi West 10.4 mph - N/A   Mostly Cloudy
7:55 PM 62.6 °F 51.8 °F 68% 29.86 in 6.2 mi West 6.9 mph - N/A   Mostly Cloudy
8:00 PM 62 °F 52 °F 61% 29.88 in 11 mi West 6.9 mph - -  
8:55 PM 59.0 °F 55.4 °F 88% 29.86 in 6.2 mi West 10.4 mph - N/A   Scattered Clouds
9:55 PM 59.0 °F 55.4 °F 88% 29.89 in 6.2 mi West 10.4 mph - N/A   Scattered Clouds
10:55 PM 59.0 °F 55.4 °F 88% 29.89 in 6.2 mi West 10.4 mph - N/A   Scattered Clouds
11:00 PM 60 °F 56 °F 81% 29.90 in 7 mi West 10.4 mph - -   Partly Cloudy
11:55 PM 57.2 °F 53.6 °F 88% 29.89 in 6.2 mi NW 4.6 mph - N/A   Scattered Clouds